GW1943 Weather Reports


time (UTC)temp
F
wind
direction
speed
knots
gust
knots
rain 1hr
in
rain 24hr
in
rain mn
in
humidity
%
barometer
mb
20260508080950 49 189 0.0 0.0 0.00 0.00 0.00 94 1017.6
20260508080448 49 189 0.0 0.0 0.00 0.00 0.00 94 1017.6
20260508075945 49 189 0.0 0.0 0.00 0.00 0.00 94 1017.5
20260508075442 49 189 0.0 0.0 0.00 0.00 0.00 94 1017.6
20260508074939 49 189 0.0 0.0 0.00 0.00 0.00 94 1017.6
20260508074437 49 189 0.0 0.0 0.00 0.00 0.00 94 1017.5
20260508073934 49 189 0.0 0.0 0.00 0.00 0.00 93 1017.6
20260508073431 49 189 0.0 0.0 0.00 0.00 0.00 93 1017.6
20260508072928 50 189 0.0 0.0 0.00 0.00 0.00 93 1017.6
20260508072424 50 189 0.0 0.0 0.00 0.00 0.00 92 1017.5
20260508071922 50 189 0.0 0.0 0.00 0.00 0.00 92 1017.5
20260508071420 50 189 0.0 0.0 0.00 0.00 0.00 92 1017.6
20260508070917 50 189 0.0 0.0 0.00 0.00 0.00 92 1017.6
20260508070415 50 190 0.0 0.0 0.00 0.00 0.00 92 1017.8
20260508065912 50 189 0.0 0.0 0.00 0.00 0.00 92 1017.8
20260508065410 50 189 0.0 0.0 0.00 0.00 0.00 92 1017.3
20260508064908 50 189 0.0 0.0 0.00 0.00 0.00 92 1017.8
20260508064405 50 189 0.0 0.0 0.00 0.00 0.00 92 1017.8
20260508063903 50 189 0.0 0.0 0.00 0.00 0.00 92 1017.7
20260508063401 50 189 0.0 0.0 0.00 0.00 0.00 91 1017.5
20260508062857 50 189 0.0 0.0 0.00 0.00 0.00 91 1017.7
20260508062355 50 189 0.0 0.0 0.00 0.00 0.00 91 1017.6
20260508061852 50 189 0.0 0.0 0.00 0.00 0.00 91 1017.6
20260508061349 50 189 0.0 0.0 0.00 0.00 0.00 91 1017.7
20260508060845 51 189 0.0 0.0 0.00 0.00 0.00 90 1017.9
20260508060343 51 189 0.0 0.0 0.00 0.00 0.00 90 1017.8
20260508055838 51 189 0.0 0.0 0.00 0.00 0.00 90 1018.0
20260508055336 51 190 0.0 0.0 0.00 0.00 0.00 90 1017.8
20260508054832 51 189 0.0 0.0 0.00 0.00 0.00 90 1017.8
20260508054330 51 190 0.0 0.0 0.00 0.00 0.00 90 1017.9
20260508053826 51 190 0.0 0.0 0.00 0.00 0.00 89 1017.7
20260508053324 51 190 0.0 0.0 0.00 0.00 0.00 89 1017.7
20260508052821 51 190 0.0 0.0 0.00 0.00 0.00 88 1018.0
20260508052318 52 190 0.0 0.0 0.00 0.00 0.00 88 1017.7
20260508051815 52 190 0.0 0.0 0.00 0.00 0.00 87 1017.9
20260508051310 52 190 0.0 0.0 0.00 0.00 0.00 87 1017.9
20260508050807 52 190 0.0 0.0 0.00 0.00 0.00 87 1017.9
20260508050304 52 190 0.0 0.0 0.00 0.00 0.00 88 1017.8
20260508045759 52 190 0.0 0.0 0.00 0.00 0.00 87 1017.9
20260508045257 52 190 0.0 0.0 0.00 0.00 0.00 86 1018.0
20260508044755 52 190 0.0 0.0 0.00 0.00 0.00 86 1018.2
20260508044251 53 190 0.0 0.0 0.00 0.00 0.00 86 1017.7
20260508043747 53 190 0.0 0.0 0.00 0.00 0.00 85 1018.0
20260508043245 53 190 0.0 0.0 0.00 0.00 0.00 85 1018.0
20260508042741 53 190 0.0 0.0 0.00 0.00 0.00 84 1018.0
20260508042239 53 190 0.0 0.0 0.00 0.00 0.00 84 1018.3
20260508041735 53 190 0.0 0.0 0.00 0.00 0.00 83 1018.0
20260508041232 54 190 0.0 0.0 0.00 0.00 0.00 83 1018.1
20260508040729 54 190 0.0 0.0 0.00 0.00 0.00 82 1018.3
20260508040226 55 190 0.0 0.0 0.00 0.00 0.00 81 1018.0
20260508035723 55 190 0.0 0.0 0.00 0.00 0.00 80 1018.1
20260508035221 55 190 0.0 0.0 0.00 0.00 0.00 80 1017.9
20260508034717 55 190 0.0 0.0 0.00 0.00 0.00 79 1018.2
20260508034215 56 190 0.0 0.0 0.00 0.00 0.00 79 1018.1
20260508033711 56 190 0.0 0.0 0.00 0.00 0.00 78 1017.9
20260508033210 57 190 0.0 0.0 0.00 0.00 0.00 76 1018.0
20260508032707 58 190 0.0 0.0 0.00 0.00 0.00 74 1017.9
20260508032204 59 190 0.0 0.0 0.00 0.00 0.00 73 1017.8
20260508031701 59 190 0.0 0.0 0.00 0.00 0.00 71 1018.0
20260508031157 61 190 0.0 0.0 0.00 0.00 0.00 68 1018.1
20260508030653 62 190 0.0 0.0 0.00 0.00 0.00 67 1018.0
20260508030151 63 190 0.0 0.0 0.00 0.00 0.00 66 1018.0
20260508025647 64 190 0.0 0.0 0.00 0.00 0.00 63 1018.0
20260508025144 63 190 0.0 0.0 0.00 0.00 0.00 64 1018.2
20260508024640 62 190 0.0 0.0 0.00 0.00 0.00 63 1018.0
20260508024138 63 190 0.0 0.0 0.00 0.00 0.00 63 1018.1
20260508023633 64 190 0.0 0.0 0.00 0.00 0.00 61 1018.1
20260508023131 65 190 0.0 0.0 0.00 0.00 0.00 62 1018.2
20260508022627 65 190 0.0 0.0 0.00 0.00 0.00 57 1018.1
20260508022124 65 190 0.0 0.0 0.00 0.00 0.00 57 1018.0
20260508021620 64 197 0.0 0.0 0.00 0.00 0.00 58 1018.3
20260508021116 65 189 0.9 0.9 0.00 0.00 0.00 58 1018.3
20260508020614 65 218 0.0 1.7 0.00 0.00 0.00 61 1018.2
20260508020111 65 223 0.0 0.9 0.00 0.00 0.00 59 1018.5
20260508015609 66 224 0.9 1.7 0.00 0.00 0.00 57 1018.4
20260508015105 67 214 0.0 0.0 0.00 0.00 0.00 56 1018.1
20260508014601 66 199 0.0 0.9 0.00 0.00 0.00 57 1018.3
20260508014058 66 214 0.0 0.0 0.00 0.00 0.00 59 1018.5
20260508013554 66 204 0.0 2.6 0.00 0.00 0.00 55 1018.2
20260508013051 68 211 0.0 1.7 0.00 0.00 0.00 55 1018.4
20260508012548 68 0 2.6 2.6 0.00 0.00 0.00 52 1018.3
20260508012046 66 192 0.0 0.9 0.00 0.00 0.00 56 1018.3
20260508011544 66 21 0.0 1.7 0.00 0.00 0.00 57 1018.6
20260508011041 67 194 0.0 0.9 0.00 0.00 0.00 55 1018.6
20260508010538 68 188 0.0 0.9 0.00 0.00 0.00 54 1018.6
20260508010035 69 215 0.0 1.7 0.00 0.00 0.00 56 1018.6
20260508005532 69 219 0.0 1.7 0.00 0.00 0.00 52 1018.7
20260508005028 68 196 0.0 0.9 0.00 0.00 0.00 56 1018.8
20260508004524 68 223 0.0 1.7 0.00 0.00 0.00 53 1018.8
20260508004021 68 193 0.0 0.9 0.00 0.00 0.00 52 1018.9
20260508003518 66 219 0.0 1.7 0.00 0.00 0.00 54 1019.2
20260508003016 67 224 0.0 1.7 0.00 0.00 0.00 56 1019.1
20260508002511 68 223 0.9 1.7 0.00 0.00 0.00 58 1019.0
20260508002009 68 167 0.9 1.7 0.00 0.00 0.00 54 1018.8
20260508001504 68 220 1.7 1.7 0.00 0.00 0.00 53 1018.9
20260508001001 67 220 0.9 0.9 0.00 0.00 0.00 56 1018.9
20260508000457 67 182 0.0 4.3 0.00 0.00 0.00 55 1019.1
20260507235954 68 227 0.9 0.9 0.00 0.00 0.00 53 1019.0
20260507235451 67 215 0.0 1.7 0.00 0.00 0.00 55 1019.1
20260507234948 67 216 0.9 1.7 0.00 0.00 0.00 55 1019.0
20260507234439 66 219 0.9 1.7 0.00 0.00 0.00 54 1019.1
20260507233935 66 230 0.9 1.7 0.00 0.00 0.00 57 1019.1
20260507233432 66 211 0.0 1.7 0.00 0.00 0.00 55 1019.0
20260507232931 66 223 0.0 2.6 0.00 0.00 0.00 55 1019.1
20260507232427 67 214 0.9 1.7 0.00 0.00 0.00 55 1018.8
20260507231924 66 173 0.9 2.6 0.00 0.00 0.00 55 1019.0
20260507231420 66 217 0.0 0.9 0.00 0.00 0.00 57 1019.0
20260507230917 66 266 0.9 1.7 0.00 0.00 0.00 58 1019.1
20260507230415 67 224 0.0 1.7 0.00 0.00 0.00 57 1019.3
20260507225914 68 281 0.0 1.7 0.00 0.00 0.00 57 1019.4
20260507225411 66 221 0.0 0.9 0.00 0.00 0.00 59 1019.3
20260507224907 66 145 1.7 1.7 0.00 0.00 0.00 55 1019.6
20260507224403 66 211 1.7 2.6 0.00 0.00 0.00 55 1019.4
20260507223900 67 238 1.7 2.6 0.00 0.00 0.00 57 1019.5
20260507223356 65 197 0.0 0.0 0.00 0.00 0.00 62 1019.7
20260507222854 64 225 0.9 0.9 0.00 0.00 0.00 61 1019.7
20260507222349 64 232 0.0 1.7 0.00 0.00 0.00 62 1019.6
20260507221847 65 205 0.0 2.6 0.00 0.00 0.00 58 1019.7
20260507221343 65 231 0.0 1.7 0.00 0.00 0.00 60 1019.7
20260507220839 67 218 0.9 2.6 0.00 0.00 0.00 57 1019.7
20260507220338 69 44 2.6 2.6 0.00 0.00 0.00 52 1019.9
20260507215833 67 220 0.0 2.6 0.00 0.00 0.00 59 1019.7
20260507215331 66 224 0.9 1.7 0.00 0.00 0.00 56 1019.7
20260507214828 66 230 0.9 4.3 0.00 0.00 0.00 60 1019.9
20260507214325 66 227 0.0 0.9 0.00 0.00 0.00 59 1019.8
20260507213820 67 215 0.9 2.6 0.00 0.00 0.00 56 1020.2
20260507213317 66 217 0.9 2.6 0.00 0.00 0.00 57 1020.0
20260507212814 65 235 0.9 2.6 0.00 0.00 0.00 60 1020.1
20260507212310 66 217 0.9 2.6 0.00 0.00 0.00 57 1020.1
20260507211807 66 227 1.7 1.7 0.00 0.00 0.00 58 1020.3
20260507211304 67 232 0.9 1.7 0.00 0.00 0.00 57 1020.2
20260507210800 66 226 0.9 1.7 0.00 0.00 0.00 61 1020.4
20260507210257 66 63 0.9 4.3 0.00 0.00 0.00 56 1020.3
20260507205754 65 233 1.7 1.7 0.00 0.00 0.00 57 1020.6
20260507205251 66 245 0.9 2.6 0.00 0.00 0.00 56 1020.3
20260507204746 66 217 0.9 2.6 0.00 0.00 0.00 56 1020.6
20260507204244 65 232 0.0 1.7 0.00 0.00 0.00 57 1020.6
20260507203741 65 227 0.0 0.9 0.00 0.00 0.00 60 1020.8
20260507203233 66 336 0.0 0.9 0.00 0.00 0.00 58 1020.5
20260507202729 65 239 0.9 1.7 0.00 0.00 0.00 58 1020.5
20260507202220 63 225 0.9 0.9 0.00 0.00 0.00 60 1020.7
20260507201715 61 219 0.0 0.9 0.00 0.00 0.00 66 1020.8
20260507201212 62 224 0.9 2.6 0.00 0.00 0.00 64 1021.0
20260507200708 62 189 0.9 2.6 0.00 0.00 0.00 64 1021.0
20260507200204 63 239 1.7 2.6 0.00 0.00 0.00 59 1020.8
20260507195701 63 218 0.0 0.9 0.00 0.00 0.00 62 1021.0
20260507195158 63 225 0.0 1.7 0.00 0.00 0.00 65 1021.0
20260507194655 63 229 0.0 1.7 0.00 0.00 0.00 63 1021.1
20260507194150 63 218 0.0 0.0 0.00 0.00 0.00 63 1021.0
20260507193648 61 218 0.0 0.9 0.00 0.00 0.00 68 1021.0
20260507193145 61 207 0.9 1.7 0.00 0.00 0.00 64 1021.1
20260507192640 60 221 0.0 0.9 0.00 0.00 0.00 69 1021.0
20260507192138 59 217 0.9 1.7 0.00 0.00 0.00 68 1021.3
20260507191633 59 230 1.7 2.6 0.00 0.00 0.00 67 1021.2
20260507191130 60 219 0.9 1.7 0.00 0.00 0.00 68 1021.2
20260507190628 60 212 0.0 0.9 0.00 0.00 0.00 68 1021.3
20260507190127 60 223 0.9 1.7 0.00 0.00 0.00 67 1021.2
20260507185625 60 216 0.0 0.0 0.00 0.00 0.00 72 1021.3
20260507185121 60 222 0.0 0.9 0.00 0.00 0.00 69 1021.2
20260507184619 59 220 0.0 2.6 0.00 0.00 0.00 70 1021.5
20260507184117 59 222 0.9 1.7 0.00 0.00 0.00 71 1021.3
20260507183612 59 223 0.0 1.7 0.00 0.00 0.00 72 1021.6
20260507183110 59 240 1.7 1.7 0.00 0.00 0.00 70 1021.4
20260507182606 58 221 0.0 0.9 0.00 0.00 0.00 73 1021.4
20260507182102 58 229 0.9 1.7 0.00 0.00 0.00 72 1021.4
20260507181559 57 227 0.9 1.7 0.00 0.00 0.00 72 1021.5
20260507181055 57 227 0.9 0.9 0.00 0.00 0.00 72 1021.4
20260507180552 57 216 0.9 1.7 0.00 0.00 0.00 72 1021.4
20260507180049 57 221 0.0 1.7 0.00 0.00 0.00 72 1021.5
20260507175545 58 231 0.9 0.9 0.00 0.00 0.00 72 1021.5
20260507175042 58 220 0.0 0.9 0.00 0.00 0.00 71 1021.5
20260507174539 57 229 0.0 0.9 0.00 0.00 0.00 74 1021.4
20260507174037 57 217 0.9 1.7 0.00 0.00 0.00 76 1021.7
20260507173534 56 217 0.9 1.7 0.00 0.00 0.00 74 1021.8
20260507173031 56 237 0.9 2.6 0.00 0.00 0.00 75 1021.4
20260507172526 56 206 0.0 1.7 0.00 0.00 0.00 75 1021.4
20260507172024 56 234 0.9 1.7 0.00 0.00 0.00 76 1021.5
20260507171519 55 215 0.0 2.6 0.00 0.00 0.00 77 1021.6
20260507171017 55 221 0.0 0.9 0.00 0.00 0.00 79 1021.7
20260507170513 55 222 0.0 0.9 0.00 0.00 0.00 78 1021.5
20260507170010 55 221 0.9 1.7 0.00 0.00 0.00 79 1021.5
20260507165506 55 217 0.9 1.7 0.00 0.00 0.00 78 1021.7
20260507165003 54 216 0.9 4.3 0.00 0.00 0.00 80 1021.6
20260507164459 54 220 0.0 1.7 0.00 0.00 0.00 82 1021.5
20260507163956 53 218 0.0 0.0 0.00 0.00 0.00 82 1021.7
20260507163453 53 221 0.9 0.9 0.00 0.00 0.00 82 1021.8
20260507162950 53 230 0.9 1.7 0.00 0.00 0.00 82 1021.7
20260507162446 53 221 0.0 1.7 0.00 0.00 0.00 82 1021.6
20260507161943 53 228 1.7 2.6 0.00 0.00 0.00 81 1021.9
20260507161439 53 221 0.0 0.9 0.00 0.00 0.00 83 1021.7
20260507160936 53 221 0.0 1.7 0.00 0.00 0.00 81 1021.8
20260507160432 53 225 0.9 1.7 0.00 0.00 0.00 80 1021.7
20260507155927 53 215 0.0 0.9 0.00 0.00 0.00 80 1021.7
20260507155424 53 245 1.7 1.7 0.00 0.00 0.00 81 1021.8
20260507154921 53 221 0.9 2.6 0.00 0.00 0.00 82 1021.7
20260507154418 53 235 1.7 2.6 0.00 0.00 0.00 82 1021.9
20260507153915 53 220 1.7 2.6 0.00 0.00 0.00 82 1021.8
20260507153412 53 217 0.9 1.7 0.00 0.00 0.00 83 1021.9
20260507152908 53 219 0.9 1.7 0.00 0.00 0.00 82 1021.8
20260507152404 53 214 0.9 0.9 0.00 0.00 0.00 82 1021.9
20260507151900 53 212 1.7 1.7 0.00 0.00 0.00 82 1021.8
20260507151356 52 216 0.9 0.9 0.00 0.00 0.00 84 1021.8
20260507150854 52 215 0.9 4.3 0.00 0.00 0.00 84 1021.7
20260507150351 52 220 0.0 0.0 0.00 0.00 0.00 86 1021.7
20260507145847 51 215 0.0 0.0 0.00 0.00 0.00 88 1021.9
20260507145343 51 217 0.0 0.0 0.00 0.00 0.00 89 1021.8
20260507144840 50 215 0.0 0.0 0.00 0.00 0.00 90 1021.8
20260507144337 50 215 0.0 0.0 0.00 0.00 0.00 90 1021.8
20260507143834 50 215 0.0 0.0 0.00 0.00 0.00 91 1021.8
20260507143331 49 214 0.0 0.0 0.00 0.00 0.00 91 1021.8
20260507142827 49 214 0.0 0.0 0.00 0.00 0.00 91 1021.6
20260507142324 49 214 0.0 0.0 0.00 0.00 0.00 92 1021.9
20260507141821 49 215 0.0 0.0 0.00 0.00 0.00 92 1021.9
20260507141317 49 211 0.0 0.0 0.00 0.00 0.00 93 1021.7
20260507140814 48 210 0.0 0.0 0.00 0.00 0.00 93 1021.5
20260507140311 48 206 0.0 0.0 0.00 0.00 0.00 93 1021.6
20260507135809 48 206 0.0 0.0 0.00 0.00 0.00 93 1021.4
20260507135306 48 207 0.0 0.0 0.00 0.00 0.00 94 1021.4
20260507134802 48 207 0.0 0.0 0.00 0.00 0.00 94 1021.2
20260507134258 48 208 0.0 0.0 0.00 0.00 0.00 95 1021.5
20260507133754 48 208 0.0 0.0 0.00 0.00 0.00 95 1021.5
20260507133250 48 208 0.0 0.0 0.00 0.00 0.00 95 1021.5
20260507132749 48 208 0.0 0.0 0.00 0.00 0.00 95 1021.4
20260507132245 48 208 0.0 0.0 0.00 0.00 0.00 96 1021.2
20260507131742 48 208 0.0 0.0 0.00 0.00 0.00 96 1021.5
20260507131239 47 208 0.0 0.0 0.00 0.00 0.00 96 1021.5
20260507130735 47 208 0.0 0.0 0.00 0.00 0.00 95 1021.3
20260507130233 47 208 0.0 0.0 0.00 0.00 0.00 95 1021.5
20260507125732 47 208 0.0 0.0 0.00 0.00 0.00 95 1021.5
20260507125229 47 208 0.0 0.0 0.00 0.00 0.00 95 1021.4
20260507124726 47 208 0.0 0.0 0.00 0.00 0.00 95 1021.5
20260507124222 48 208 0.0 0.0 0.00 0.00 0.00 94 1021.6
20260507123721 48 208 0.0 0.0 0.00 0.00 0.00 94 1021.4
20260507123218 48 208 0.0 0.0 0.00 0.00 0.00 94 1021.8
20260507122713 48 208 0.0 0.0 0.00 0.00 0.00 94 1021.6
20260507122209 48 208 0.0 0.0 0.00 0.00 0.00 93 1021.8
20260507121705 48 209 0.0 0.0 0.00 0.00 0.00 93 1021.4
20260507121201 49 209 0.0 0.0 0.00 0.00 0.00 93 1021.6
20260507120657 49 208 0.0 0.0 0.00 0.00 0.00 93 1021.6
20260507120154 49 208 0.0 0.0 0.00 0.00 0.00 93 1021.5
20260507115650 49 208 0.0 0.0 0.00 0.00 0.00 93 1021.7
20260507115146 50 210 0.0 0.0 0.00 0.00 0.00 93 1021.8
20260507114643 50 210 0.0 0.0 0.00 0.00 0.00 93 1021.7
20260507114140 50 210 0.0 0.0 0.00 0.00 0.00 93 1021.9
20260507113637 50 212 0.0 0.0 0.00 0.00 0.00 93 1021.7
20260507113134 50 212 0.0 0.0 0.00 0.00 0.00 93 1022.2
20260507112632 51 212 0.0 0.0 0.00 0.00 0.00 92 1021.8
20260507112128 51 212 0.0 0.0 0.00 0.00 0.00 92 1022.0
20260507111626 51 212 0.0 0.0 0.00 0.00 0.00 92 1021.9
20260507111122 51 212 0.0 0.0 0.00 0.00 0.00 92 1022.1
20260507110618 51 212 0.0 0.0 0.00 0.00 0.00 92 1022.1
20260507110115 51 213 0.0 0.0 0.00 0.00 0.00 92 1022.1
20260507105612 51 216 0.0 0.0 0.00 0.00 0.00 92 1022.0
20260507105108 51 216 0.0 0.0 0.00 0.00 0.00 92 1022.0
20260507104606 51 216 0.0 0.0 0.00 0.00 0.00 92 1022.0
20260507104102 52 216 0.0 0.0 0.00 0.00 0.00 92 1022.0
20260507103558 52 216 0.0 0.0 0.00 0.00 0.00 92 1022.1
20260507103055 52 216 0.0 0.0 0.00 0.00 0.00 91 1022.1
20260507102551 52 216 0.0 0.0 0.00 0.00 0.00 91 1022.1
20260507102047 52 216 0.0 0.0 0.00 0.00 0.00 91 1022.3
20260507101543 52 216 0.0 0.0 0.00 0.00 0.00 90 1022.2
20260507101039 52 216 0.0 0.0 0.00 0.00 0.00 90 1022.1
20260507100537 52 216 0.0 0.0 0.00 0.00 0.00 90 1022.4
20260507100035 52 216 0.0 0.0 0.00 0.00 0.00 90 1022.2
20260507095533 52 216 0.0 0.0 0.00 0.00 0.00 90 1022.4
20260507095029 52 215 0.0 0.0 0.00 0.00 0.00 90 1022.5
20260507094525 52 215 0.0 0.9 0.00 0.00 0.00 89 1022.2
20260507094022 52 217 0.0 0.0 0.00 0.00 0.00 90 1022.4
20260507093520 52 215 0.0 0.0 0.00 0.00 0.00 90 1022.2
20260507093018 51 215 0.0 0.0 0.00 0.00 0.00 90 1022.2
20260507092514 52 215 0.0 0.9 0.00 0.00 0.00 90 1022.2
20260507092011 52 217 0.0 0.0 0.00 0.00 0.00 90 1022.2
20260507091508 51 215 0.0 0.0 0.00 0.00 0.00 90 1022.2
20260507091004 51 213 0.0 0.0 0.00 0.00 0.00 90 1022.2
20260507090500 51 214 0.9 0.9 0.00 0.00 0.00 91 1022.5
20260507085956 51 214 0.0 0.0 0.00 0.00 0.00 91 1022.3
20260507085454 51 213 0.0 0.0 0.00 0.00 0.00 91 1022.1
20260507084950 51 213 0.0 0.0 0.00 0.00 0.00 91 1022.1
20260507084447 51 213 0.0 0.0 0.00 0.00 0.00 91 1022.3
20260507083944 51 214 0.0 0.9 0.00 0.00 0.00 92 1022.2
20260507083441 52 213 0.0 0.0 0.00 0.00 0.00 92 1022.0
20260507082937 51 213 0.0 0.9 0.00 0.00 0.00 92 1022.1
20260507082433 51 214 0.0 1.7 0.00 0.00 0.00 93 1022.0
20260507081930 51 213 0.0 0.0 0.00 0.00 0.00 93 1022.1
20260507081426 51 213 0.0 0.0 0.00 0.00 0.00 93 1022.1